| time (UTC) | temp C | wind direction | speed KPH | gust KPH | rain 1hr cm | rain 24hr cm | rain mn cm | humidity % | barometer mb |
| 20260504220017 | 12 | 286 | 8.0 | 29.0 | 0.00 | 0.00 | 0.00 | 38 | 1012.9 |
| 20260504213016 | 13 | 294 | 9.7 | 29.0 | 0.00 | 0.00 | 0.00 | 38 | 1013.9 |
| 20260504210016 | 13 | 265 | 4.8 | 27.4 | 0.00 | 0.00 | 0.00 | 33 | 1014.6 |
| 20260504203038 | 12 | 325 | 9.7 | 27.4 | 0.00 | 0.00 | 0.00 | 39 | 1014.3 |
| 20260504200017 | 12 | 289 | 6.4 | 22.5 | 0.00 | 0.00 | 0.00 | 32 | 1014.3 |
| 20260504193036 | 12 | 290 | 8.0 | 27.4 | 0.00 | 0.00 | 0.00 | 35 | 1014.5 |
| 20260504190016 | 11 | 338 | 6.4 | 27.4 | 0.00 | 0.00 | 0.00 | 33 | 1014.2 |
| 20260504183036 | 11 | 300 | 6.4 | 24.1 | 0.00 | 0.00 | 0.00 | 33 | 1014.5 |
| 20260504180016 | 12 | 314 | 6.4 | 24.1 | 0.00 | 0.00 | 0.00 | 31 | 1015.5 |
| 20260504173016 | 11 | 330 | 6.4 | 22.5 | 0.00 | 0.00 | 0.00 | 38 | 1016.5 |
| 20260504050015 | 5 | 224 | 1.6 | 8.0 | 0.00 | 0.00 | 0.00 | 38 | 1019.9 |
| 20260504043017 | 6 | 267 | 0.0 | 4.8 | 0.00 | 0.00 | 0.00 | 36 | 1019.6 |
| 20260504040037 | 6 | 267 | 0.0 | 4.8 | 0.00 | 0.00 | 0.00 | 37 | 1019.4 |
| 20260504033017 | 6 | 267 | 1.6 | 4.8 | 0.00 | 0.00 | 0.00 | 36 | 1019.2 |
| 20260504030017 | 7 | 267 | 1.6 | 6.4 | 0.00 | 0.00 | 0.00 | 36 | 1019.0 |
| 20260504023016 | 8 | 271 | 1.6 | 6.4 | 0.00 | 0.00 | 0.00 | 35 | 1019.0 |
| 20260504020016 | 10 | 284 | 0.0 | 9.7 | 0.00 | 0.00 | 0.00 | 32 | 1017.7 |
| 20260504013017 | 10 | 288 | 0.0 | 22.5 | 0.00 | 0.00 | 0.00 | 31 | 1017.1 |
| 20260504010037 | 10 | 315 | 4.8 | 22.5 | 0.00 | 0.00 | 0.00 | 31 | 1017.1 |
| 20260504003036 | 11 | 281 | 6.4 | 22.5 | 0.00 | 0.00 | 0.00 | 29 | 1017.9 |
| 20260504000016 | 11 | 298 | 6.4 | 22.5 | 0.00 | 0.00 | 0.00 | 27 | 1018.3 |
| 20260503233017 | 12 | 279 | 6.4 | 22.5 | 0.00 | 0.00 | 0.00 | 26 | 1019.2 |
| 20260503230016 | 12 | 257 | 4.8 | 30.6 | 0.00 | 0.00 | 0.00 | 26 | 1019.3 |
| 20260503223016 | 12 | 289 | 6.4 | 30.6 | 0.00 | 0.00 | 0.00 | 27 | 1019.0 |